Time,TemperatureF,DewpointF,PressureIn,WindDirection,WindDirectionDegrees,WindSpeedMPH,WindSpeedGustMPH,Humidity,HourlyPrecipIn,Conditions,Clouds,dailyrainin,SoftwareType,DateUTC
2013-03-24 00:00:00,29.7,25.0,29.73,WNW,303,0.0,-999.0,81,-99.99,,,0.00,weatherlink.com 1.10,2013-03-24 04:00:00,
2013-03-24 00:15:00,29.7,25.0,29.74,WNW,298,0.0,-999.0,82,-99.99,,,0.00,weatherlink.com 1.10,2013-03-24 04:15:00,
2013-03-24 00:30:00,29.7,25.0,29.74,SW,235,2.0,-999.0,81,-99.99,,,0.00,weatherlink.com 1.10,2013-03-24 04:30:00,
2013-03-24 00:45:00,29.7,25.0,29.74,NW,306,0.0,-999.0,81,-99.99,,,0.00,weatherlink.com 1.10,2013-03-24 04:45:00,
2013-03-24 01:00:00,29.7,25.0,29.74,NE,44,0.0,-999.0,81,-99.99,,,0.00,weatherlink.com 1.10,2013-03-24 05:00:00,
2013-03-24 01:15:00,29.6,25.0,29.74,South,171,0.0,-999.0,82,-99.99,,,0.00,weatherlink.com 1.10,2013-03-24 05:15:00,
2013-03-24 01:30:00,29.6,25.0,29.74,NNW,347,0.0,-999.0,82,-99.99,,,0.00,weatherlink.com 1.10,2013-03-24 05:30:00,
2013-03-24 01:45:00,29.6,24.0,29.75,East,90,2.0,-999.0,81,-99.99,,,0.00,weatherlink.com 1.10,2013-03-24 05:45:00,
2013-03-24 02:01:00,29.6,24.0,29.75,SSW,202,0.0,-999.0,81,-99.99,,,0.00,weatherlink.com 1.10,2013-03-24 06:01:00,
2013-03-24 02:16:00,29.6,24.0,29.75,NNW,330,2.0,-999.0,81,-99.99,,,0.00,weatherlink.com 1.10,2013-03-24 06:16:00,
2013-03-24 02:31:00,29.7,25.0,29.76,NW,309,0.0,-999.0,82,-99.99,,,0.00,weatherlink.com 1.10,2013-03-24 06:31:00,
2013-03-24 02:46:00,29.5,25.0,29.76,WSW,247,1.0,-999.0,83,-99.99,,,0.00,weatherlink.com 1.10,2013-03-24 06:46:00,
2013-03-24 03:16:00,29.2,25.0,29.75,West,277,0.0,-999.0,84,-99.99,,,0.00,weatherlink.com 1.10,2013-03-24 07:16:00,
2013-03-24 03:31:00,28.9,25.0,29.75,West,261,1.0,-999.0,85,-99.99,,,0.00,weatherlink.com 1.10,2013-03-24 07:31:00,
2013-03-24 03:46:00,28.8,25.0,29.75,West,271,4.0,-999.0,86,-99.99,,,0.00,weatherlink.com 1.10,2013-03-24 07:46:00,
2013-03-24 04:01:00,28.7,25.0,29.75,North,360,1.0,-999.0,87,-99.99,,,0.00,weatherlink.com 1.10,2013-03-24 08:01:00,
2013-03-24 04:16:00,28.6,25.0,29.75,SW,230,0.0,-999.0,87,-99.99,,,0.00,weatherlink.com 1.10,2013-03-24 08:16:00,
2013-03-24 05:01:00,28.2,25.0,29.74,NE,36,0.0,-999.0,88,-99.99,,,0.00,weatherlink.com 1.10,2013-03-24 09:01:00,
2013-03-24 05:31:00,28.3,25.0,29.74,WSW,257,0.0,-999.0,87,-99.99,,,0.00,weatherlink.com 1.10,2013-03-24 09:31:00,
2013-03-24 06:01:00,28.4,25.0,29.75,West,278,0.0,-999.0,86,-99.99,,,0.00,weatherlink.com 1.10,2013-03-24 10:01:00,
2013-03-24 06:16:00,28.4,25.0,29.75,West,279,0.0,-999.0,86,-99.99,,,0.00,weatherlink.com 1.10,2013-03-24 10:16:00,
2013-03-24 06:31:00,28.4,25.0,29.76,SSW,211,0.0,-999.0,86,-99.99,,,0.00,weatherlink.com 1.10,2013-03-24 10:31:00,
2013-03-24 06:46:00,28.4,25.0,29.76,WSW,240,0.0,-999.0,86,-99.99,,,0.00,weatherlink.com 1.10,2013-03-24 10:46:00,
2013-03-24 07:01:00,28.4,25.0,29.77,SW,236,2.0,-999.0,86,-99.99,,,0.00,weatherlink.com 1.10,2013-03-24 11:01:00,
2013-03-24 07:46:00,28.8,25.0,29.79,South,184,0.0,-999.0,85,-99.99,,,0.00,weatherlink.com 1.10,2013-03-24 11:46:00,
2013-03-24 08:01:00,29.0,25.0,29.81,SW,225,0.0,-999.0,85,-99.99,,,0.00,weatherlink.com 1.10,2013-03-24 12:01:00,
2013-03-24 08:19:00,29.2,25.0,29.82,WSW,251,0.0,-999.0,85,-99.99,,,0.00,weatherlink.com 1.10,2013-03-24 12:19:00,
2013-03-24 08:31:00,29.4,26.0,29.82,WNW,282,0.0,-999.0,85,-99.99,,,0.00,weatherlink.com 1.10,2013-03-24 12:31:00,
2013-03-24 08:46:00,29.7,25.0,29.82,SSW,205,1.0,-999.0,83,-99.99,,,0.00,weatherlink.com 1.10,2013-03-24 12:46:00,
2013-03-24 09:01:00,30.2,25.0,29.82,NW,308,0.0,-999.0,82,-99.99,,,0.00,weatherlink.com 1.10,2013-03-24 13:01:00,
2013-03-24 09:31:00,30.9,25.0,29.82,SSW,196,1.0,-999.0,80,-99.99,,,0.00,weatherlink.com 1.10,2013-03-24 13:31:00,
2013-03-24 09:46:00,31.3,26.0,29.82,NE,45,0.0,-999.0,79,-99.99,,,0.00,weatherlink.com 1.10,2013-03-24 13:46:00,
2013-03-24 10:01:00,31.6,25.0,29.82,NE,42,0.0,-999.0,78,-99.99,,,0.00,weatherlink.com 1.10,2013-03-24 14:01:00,
2013-03-24 10:16:00,31.6,25.0,29.82,South,186,0.0,-999.0,77,-99.99,,,0.00,weatherlink.com 1.10,2013-03-24 14:16:00,
2013-03-24 11:01:00,32.2,24.0,29.82,West,261,0.0,-999.0,73,-99.99,,,0.00,weatherlink.com 1.10,2013-03-24 15:01:00,
2013-03-24 11:17:00,32.2,24.0,29.81,NW,324,0.0,-999.0,73,-99.99,,,0.00,weatherlink.com 1.10,2013-03-24 15:17:00,
2013-03-24 11:31:00,32.5,24.0,29.81,NNE,32,2.0,-999.0,72,-99.99,,,0.00,weatherlink.com 1.10,2013-03-24 15:31:00,
2013-03-24 11:46:00,32.9,24.0,29.81,WSW,257,1.0,-999.0,71,-99.99,,,0.00,weatherlink.com 1.10,2013-03-24 15:46:00,
2013-03-24 12:01:00,33.2,24.0,29.81,North,355,4.0,-999.0,69,-99.99,,,0.00,weatherlink.com 1.10,2013-03-24 16:01:00,
2013-03-24 12:17:00,33.9,24.0,29.81,NW,311,2.0,-999.0,67,-99.99,,,0.00,weatherlink.com 1.10,2013-03-24 16:17:00,
2013-03-24 12:32:00,35.1,24.0,29.80,North,11,1.0,-999.0,64,-99.99,,,0.00,weatherlink.com 1.10,2013-03-24 16:32:00,
2013-03-24 12:47:00,35.0,24.0,29.81,North,5,0.0,-999.0,65,-99.99,,,0.00,weatherlink.com 1.10,2013-03-24 16:47:00,
2013-03-24 13:02:00,34.7,24.0,29.81,WNW,303,0.0,-999.0,65,-99.99,,,0.00,weatherlink.com 1.10,2013-03-24 17:02:00,
2013-03-24 13:17:00,34.7,24.0,29.81,NW,321,1.0,-999.0,66,-99.99,,,0.00,weatherlink.com 1.10,2013-03-24 17:17:00,
2013-03-24 13:32:00,34.8,24.0,29.81,West,267,3.0,-999.0,66,-99.99,,,0.00,weatherlink.com 1.10,2013-03-24 17:32:00,
2013-03-24 13:47:00,34.3,24.0,29.80,North,360,0.0,-999.0,67,-99.99,,,0.00,weatherlink.com 1.10,2013-03-24 17:47:00,
2013-03-24 14:17:00,34.7,24.0,29.80,NW,324,1.0,-999.0,66,-99.99,,,0.00,weatherlink.com 1.10,2013-03-24 18:17:00,
2013-03-24 14:32:00,34.8,25.0,29.79,WSW,255,2.0,-999.0,67,-99.99,,,0.00,weatherlink.com 1.10,2013-03-24 18:32:00,
2013-03-24 14:47:00,35.2,24.0,29.79,NNW,340,2.0,-999.0,64,-99.99,,,0.00,weatherlink.com 1.10,2013-03-24 18:47:00,
2013-03-24 15:02:00,35.0,24.0,29.80,NNE,18,0.0,-999.0,65,-99.99,,,0.00,weatherlink.com 1.10,2013-03-24 19:02:00,
2013-03-24 15:17:00,34.9,24.0,29.80,NW,325,1.0,-999.0,65,-99.99,,,0.00,weatherlink.com 1.10,2013-03-24 19:17:00,
2013-03-24 15:32:00,35.1,24.0,29.80,NNE,12,2.0,-999.0,65,-99.99,,,0.00,weatherlink.com 1.10,2013-03-24 19:32:00,
2013-03-24 15:47:00,35.2,24.0,29.79,NNE,18,1.0,-999.0,65,-99.99,,,0.00,weatherlink.com 1.10,2013-03-24 19:47:00,
2013-03-24 16:02:00,35.2,24.0,29.79,WNW,290,2.0,-999.0,64,-99.99,,,0.01,weatherlink.com 1.10,2013-03-24 20:02:00,
2013-03-24 16:17:00,35.2,24.0,29.78,NW,313,1.0,-999.0,64,-99.99,,,0.01,weatherlink.com 1.10,2013-03-24 20:17:00,
2013-03-24 16:32:00,35.6,24.0,29.78,NW,304,0.0,-999.0,64,-99.99,,,0.01,weatherlink.com 1.10,2013-03-24 20:32:00,
2013-03-24 16:47:00,35.0,25.0,29.78,North,5,0.0,-999.0,66,-99.99,,,0.01,weatherlink.com 1.10,2013-03-24 20:47:00,
2013-03-24 17:02:00,34.6,24.0,29.77,WNW,287,1.0,-999.0,65,-99.99,,,0.01,weatherlink.com 1.10,2013-03-24 21:02:00,
2013-03-24 17:17:00,35.0,24.0,29.77,NW,310,0.0,-999.0,65,-99.99,,,0.01,weatherlink.com 1.10,2013-03-24 21:17:00,
2013-03-24 17:32:00,35.9,24.0,29.78,WNW,284,3.0,-999.0,63,-99.99,,,0.01,weatherlink.com 1.10,2013-03-24 21:32:00,
2013-03-24 17:47:00,35.8,24.0,29.78,NNE,29,2.0,-999.0,62,-99.99,,,0.01,weatherlink.com 1.10,2013-03-24 21:47:00,
2013-03-24 18:02:00,35.9,25.0,29.77,NNW,335,0.0,-999.0,64,-99.99,,,0.01,weatherlink.com 1.10,2013-03-24 22:02:00,
2013-03-24 18:17:00,35.9,24.0,29.77,NW,309,1.0,-999.0,63,-99.99,,,0.01,weatherlink.com 1.10,2013-03-24 22:17:00,
2013-03-24 18:32:00,35.1,24.0,29.78,NW,306,2.0,-999.0,65,-99.99,,,0.01,weatherlink.com 1.10,2013-03-24 22:32:00,
2013-03-24 18:47:00,34.1,24.0,29.78,NW,310,0.0,-999.0,66,-99.99,,,0.01,weatherlink.com 1.10,2013-03-24 22:47:00,
2013-03-24 19:02:00,33.8,24.0,29.78,NW,310,0.0,-999.0,68,-99.99,,,0.01,weatherlink.com 1.10,2013-03-24 23:02:00,
2013-03-24 19:17:00,33.5,24.0,29.79,NW,310,0.0,-999.0,69,-99.99,,,0.01,weatherlink.com 1.10,2013-03-24 23:17:00,
2013-03-24 19:32:00,33.2,24.0,29.79,NW,310,0.0,-999.0,70,-99.99,,,0.01,weatherlink.com 1.10,2013-03-24 23:32:00,
2013-03-24 19:47:00,32.8,24.0,29.79,NW,310,0.0,-999.0,71,-99.99,,,0.01,weatherlink.com 1.10,2013-03-24 23:47:00,
2013-03-24 20:02:00,32.5,24.0,29.79,NW,310,0.0,-999.0,72,-99.99,,,0.01,weatherlink.com 1.10,2013-03-25 00:02:00,
2013-03-24 20:17:00,32.2,25.0,29.79,NW,310,0.0,-999.0,74,-99.99,,,0.01,weatherlink.com 1.10,2013-03-25 00:17:00,
2013-03-24 20:32:00,31.9,25.0,29.79,NW,310,0.0,-999.0,75,-99.99,,,0.01,weatherlink.com 1.10,2013-03-25 00:32:00,
2013-03-24 20:47:00,31.8,25.0,29.79,NW,310,0.0,-999.0,75,-99.99,,,0.01,weatherlink.com 1.10,2013-03-25 00:47:00,
2013-03-24 21:02:00,31.8,25.0,29.78,NW,310,0.0,-999.0,75,-99.99,,,0.01,weatherlink.com 1.10,2013-03-25 01:02:00,
2013-03-24 21:32:00,30.3,25.0,29.80,NW,310,0.0,-999.0,79,-99.99,,,0.01,weatherlink.com 1.10,2013-03-25 01:32:00,
2013-03-24 21:47:00,29.7,24.0,29.80,NW,310,0.0,-999.0,80,-99.99,,,0.01,weatherlink.com 1.10,2013-03-25 01:47:00,
2013-03-24 22:02:00,29.7,25.0,29.80,NW,310,0.0,-999.0,81,-99.99,,,0.01,weatherlink.com 1.10,2013-03-25 02:02:00,
2013-03-24 22:17:00,29.9,24.0,29.80,NW,310,0.0,-999.0,80,-99.99,,,0.01,weatherlink.com 1.10,2013-03-25 02:17:00,
2013-03-24 22:32:00,29.5,24.0,29.79,NW,310,0.0,-999.0,81,-99.99,,,0.01,weatherlink.com 1.10,2013-03-25 02:32:00,
2013-03-24 22:47:00,29.2,24.0,29.79,NW,310,0.0,-999.0,82,-99.99,,,0.01,weatherlink.com 1.10,2013-03-25 02:47:00,
2013-03-24 23:02:00,28.8,24.0,29.79,NW,310,0.0,-999.0,83,-99.99,,,0.01,weatherlink.com 1.10,2013-03-25 03:02:00,
2013-03-24 23:17:00,28.2,24.0,29.78,NW,310,0.0,-999.0,84,-99.99,,,0.01,weatherlink.com 1.10,2013-03-25 03:17:00,
2013-03-24 23:32:00,27.8,24.0,29.78,NW,310,0.0,-999.0,85,-99.99,,,0.01,weatherlink.com 1.10,2013-03-25 03:32:00,
2013-03-24 23:47:00,27.8,24.0,29.78,NW,310,0.0,-999.0,85,-99.99,,,0.01,weatherlink.com 1.10,2013-03-25 03:47:00,